Weather reports worldwide

Advertisment
Colmar, France (7197): temperature & dewpoint: 01.08.2020 02:00:00 - 07.08.2020 02:00:00 (CEST)Colmar, France (7197): temperature 5cm: 01.08.2020 02:00:00 - 07.08.2020 02:00:00 (CEST)Colmar, France (7197): temperature -20cm: 01.08.2020 02:00:00 - 07.08.2020 02:00:00 (CEST)Colmar, France (7197): wind speed & gusts: 01.08.2020 02:00:00 - 07.08.2020 02:00:00 (CEST)Colmar, France (7197): wind direction: 01.08.2020 02:00:00 - 07.08.2020 02:00:00 (CEST)Colmar, France (7197): reduced air pressure: 01.08.2020 02:00:00 - 07.08.2020 02:00:00 (CEST)Colmar, France (7197): visibility: 01.08.2020 02:00:00 - 07.08.2020 02:00:00 (CEST)Colmar, France (7197): sunshine duration: 01.08.2020 02:00:00 - 07.08.2020 02:00:00 (CEST)Colmar, France (7197): precipitation: 01.08.2020 02:00:00 - 07.08.2020 02:00:00 (CEST)
Date & Time tt [°C] td [°C] tt 5cm [°C] tt -20cm [°C] ff [km/h] ff [kn] fx [km/h] fx [kn] dd ppp [hPa] vv [km] sd [min] rr [mm]
07.08.2020 02:00:00 - - - - - - - - - - - - -
07.08.2020 01:00:00 17,2 15,5 15,9 25,2 3 2 11 6 NE 1019,5 20 0 0,0
07.08.2020 00:00:00 18,9 15,9 16,9 25,5 5 3 8 4 SSE 1019,1 20 0 0,0
06.08.2020 23:00:00 20,1 16,1 17,4 25,8 4 2 6 4 SSW 1018,7 20 0 0,0
06.08.2020 22:00:00 20,8 16,4 18,3 26,0 3 2 6 3 SW 1018,5 20 0 0,0
06.08.2020 21:00:00 24,7 17,4 21,9 26,2 0 0 8 4 N 1017,7 20 32 0,0
06.08.2020 20:00:00 27,9 15,9 29,3 26,2 4 2 12 6 N 1017,3 20 60 0,0
06.08.2020 19:00:00 28,6 15,5 31,2 26,0 8 4 14 8 N 1016,9 20 60 0,0
06.08.2020 18:00:00 28,9 15,4 33,5 25,6 7 4 15 8 NE 1017,0 20 60 0,0
06.08.2020 17:00:00 28,3 14,5 35,0 25,0 9 5 18 10 ENE 1017,3 20 60 0,0
06.08.2020 16:00:00 27,9 13,8 33,1 24,3 9 5 21 12 NE 1017,5 20 60 0,0
06.08.2020 15:00:00 27,4 13,3 32,0 23,5 6 4 20 11 NE 1017,9 20 60 0,0
06.08.2020 14:00:00 26,0 13,1 30,4 22,7 10 5 20 11 NNW 1018,4 20 60 0,0
06.08.2020 13:00:00 25,2 13,4 28,6 21,9 9 5 20 11 NNW 1018,8 20 60 0,0
06.08.2020 12:00:00 23,9 12,5 26,2 21,3 9 5 19 11 NNW 1019,1 20 60 0,0
06.08.2020 11:00:00 22,2 13,0 22,0 20,9 7 4 16 8 N 1019,2 20 60 0,0
06.08.2020 10:00:00 19,8 13,3 19,9 20,7 6 3 12 7 N 1019,5 20 60 0,0
06.08.2020 09:00:00 19,0 12,5 18,3 20,8 3 2 9 5 NNE 1019,6 20 60 0,0
06.08.2020 08:00:00 15,8 13,1 12,3 21,1 0 0 4 2 N 1019,7 20 60 0,0
06.08.2020 07:00:00 12,0 11,1 9,5 21,3 2 1 5 3 ENE 1019,5 20 7 0,0
06.08.2020 06:00:00 11,1 10,5 9,4 21,7 0 0 5 3 N 1019,2 20 0 0,0
06.08.2020 05:00:00 11,4 10,6 9,7 22,1 0 0 4 2 N 1019,0 20 0 0,0
06.08.2020 04:00:00 12,1 11,2 10,3 22,4 3 1 5 3 SSW 1018,8 20 0 0,0
06.08.2020 03:00:00 12,6 11,5 10,9 22,7 4 2 5 3 SW 1018,5 20 0 0,0
06.08.2020 02:00:00 13,3 11,7 11,6 23,1 0 0 3 2 N 1018,5 20 0 0,0
06.08.2020 01:00:00 14,7 12,0 12,5 23,4 3 1 6 3 N 1018,1 20 0 0,0
06.08.2020 00:00:00 15,7 12,4 12,8 23,8 0 0 6 3 N 1017,6 20 0 0,0
05.08.2020 23:00:00 17,6 12,1 14,5 24,1 4 2 9 5 S 1017,4 20 0 0,0
05.08.2020 22:00:00 19,9 11,9 17,3 24,4 3 2 14 8 SE 1016,8 20 0 0,0
05.08.2020 21:00:00 22,1 11,8 21,1 24,6 8 4 13 7 N 1015,9 20 34 0,0
05.08.2020 20:00:00 25,3 11,1 26,1 24,7 10 5 21 12 N 1015,4 20 60 0,0
05.08.2020 19:00:00 26,5 10,6 28,5 24,6 13 7 27 15 N 1014,9 20 60 0,0
05.08.2020 18:00:00 26,8 10,5 30,0 24,3 15 8 27 15 N 1015,0 20 60 0,0
05.08.2020 17:00:00 26,8 10,9 30,4 23,9 16 9 27 15 NNW 1015,2 20 60 0,0
05.08.2020 16:00:00 26,4 11,3 30,9 23,2 14 8 24 13 N 1015,4 20 60 0,0
05.08.2020 15:00:00 25,6 11,4 30,7 22,5 13 7 23 12 N 1015,8 20 60 0,0
05.08.2020 14:00:00 25,4 10,0 29,4 21,7 9 5 29 15 NNE 1016,4 20 60 0,0
05.08.2020 13:00:00 24,2 11,5 27,2 21,0 12 7 27 14 N 1016,9 20 60 0,0
05.08.2020 12:00:00 22,2 12,4 24,1 20,3 10 5 21 11 NNW 1017,7 20 60 0,0
05.08.2020 11:00:00 20,1 13,3 20,1 19,9 8 4 15 8 NNW 1018,2 20 60 0,0
05.08.2020 10:00:00 18,5 12,5 17,2 19,7 3 2 10 5 E 1018,8 20 60 0,0
05.08.2020 09:00:00 15,4 13,1 14,1 19,8 6 3 11 6 WSW 1019,1 20 60 0,0
05.08.2020 08:00:00 12,7 12,4 11,3 20,0 4 2 8 5 WSW 1019,5 17 60 0,0
05.08.2020 07:00:00 11,1 10,9 7,9 20,3 4 2 9 5 SSE 1019,2 11 8 0,0
05.08.2020 06:00:00 9,2 8,7 7,8 20,7 3 2 4 2 E 1019,2 12 0 0,0
05.08.2020 05:00:00 9,9 9,3 8,5 21,0 0 0 5 3 N 1019,3 9 0 0,0
05.08.2020 04:00:00 11,1 10,5 9,1 21,4 3 2 9 5 SW 1019,0 20 0 0,0
05.08.2020 03:00:00 10,9 10,1 9,7 21,7 3 2 8 4 S 1019,0 19 0 0,0
05.08.2020 02:00:00 11,9 10,8 10,2 22,1 3 2 8 4 SSW 1019,0 20 0 0,0
05.08.2020 01:00:00 12,3 11,4 11,0 22,4 3 2 7 4 S 1019,0 20 0 0,0
05.08.2020 00:00:00 13,3 11,7 11,5 22,8 3 1 6 3 S 1019,1 20 0 0,0
04.08.2020 23:00:00 14,6 12,1 13,3 23,1 5 3 9 5 SSW 1018,9 20 0 0,0
04.08.2020 22:00:00 15,4 12,2 14,1 23,5 7 4 12 6 SW 1018,8 20 0 0,0
04.08.2020 21:00:00 16,7 12,4 16,0 23,8 7 4 13 7 SSW 1018,2 20 32 0,0
04.08.2020 20:00:00 18,6 12,6 18,6 24,0 8 5 18 10 S 1017,7 20 18 0,0
04.08.2020 19:00:00 19,4 12,2 19,7 24,1 9 5 22 12 S 1017,2 20 0 0,0
04.08.2020 18:00:00 21,7 12,0 23,1 23,8 7 4 16 8 ESE 1016,9 20 33 0,0
04.08.2020 17:00:00 21,8 12,9 23,4 23,4 10 5 19 10 E 1016,7 20 41 0,0
04.08.2020 16:00:00 22,9 11,9 24,9 23,0 13 7 22 12 NW 1016,4 20 46 0,2
04.08.2020 15:00:00 21,5 12,1 24,4 22,5 9 5 19 10 N 1016,8 20 16 0,0
04.08.2020 14:00:00 21,2 12,6 24,2 21,9 8 4 16 9 NNW 1016,8 20 37 0,0
04.08.2020 13:00:00 20,6 13,1 22,4 21,4 4 2 16 8 ENE 1016,5 20 35 0,0
04.08.2020 12:00:00 19,3 13,7 20,0 21,0 4 2 11 6 NNW 1016,5 20 14 0,0
04.08.2020 11:00:00 17,5 13,8 18,7 20,8 0 0 9 5 N 1016,2 20 9 0,0
04.08.2020 10:00:00 16,4 14,6 16,1 20,8 5 3 10 5 WSW 1016,0 20 0 0,0
04.08.2020 09:00:00 15,2 14,7 15,4 20,9 4 2 8 4 WSW 1015,7 20 0 0,0
04.08.2020 08:00:00 15,2 14,9 15,0 21,0 2 1 5 3 SW 1014,9 9 0 0,0
04.08.2020 07:00:00 15,1 14,9 14,9 21,2 0 0 4 2 N 1014,4 6 0 0,0
04.08.2020 06:00:00 15,0 14,7 14,9 21,3 0 0 3 2 N 1014,0 6 0 0,0
04.08.2020 05:00:00 15,0 14,7 14,8 21,5 0 0 3 1 N 1013,7 14 0 0,0
04.08.2020 04:00:00 14,9 14,6 14,6 21,6 0 0 4 2 N 1013,5 9 0 0,0
04.08.2020 03:00:00 14,8 14,5 14,6 21,8 2 1 7 4 WNW 1013,6 7 0 0,0
04.08.2020 02:00:00 15,0 14,7 14,8 22,1 4 2 9 5 SSW 1013,3 8 0 0,0
04.08.2020 01:00:00 15,2 14,9 15,0 22,3 4 2 5 3 SW 1013,4 7 0 0,2
04.08.2020 00:00:00 15,1 14,8 15,0 22,5 4 2 10 5 NNE 1013,3 16 0 0,0
03.08.2020 23:00:00 15,3 15,0 15,1 22,8 4 2 8 4 WNW 1013,1 9 0 2,8
03.08.2020 22:00:00 15,5 14,9 15,3 23,1 4 2 15 8 ENE 1012,9 11 0 1,6
03.08.2020 21:00:00 16,1 15,6 15,8 23,3 5 3 9 5 ENE 1012,3 20 0 0,4
03.08.2020 20:00:00 15,9 14,9 16,3 23,5 4 2 11 6 E 1012,1 20 0 0,0
03.08.2020 19:00:00 16,5 15,4 16,5 23,7 4 2 14 7 E 1011,9 20 0 0,0
03.08.2020 18:00:00 16,9 15,2 16,5 23,9 8 4 16 9 S 1011,7 20 0 0,6
03.08.2020 17:00:00 17,7 15,9 17,0 24,0 7 4 13 7 SSW 1011,3 20 0 0,6
03.08.2020 16:00:00 18,0 16,2 17,4 24,2 9 5 13 7 W 1011,4 20 0 0,0
03.08.2020 15:00:00 17,3 16,0 16,1 24,3 5 3 22 12 SSW 1011,5 10 0 8,3
03.08.2020 14:00:00 20,4 15,0 19,0 24,2 9 5 23 13 NNW 1011,0 20 0 0,2
03.08.2020 13:00:00 23,4 14,7 27,2 23,7 6 4 17 9 ENE 1010,7 20 38 0,0
03.08.2020 12:00:00 22,6 14,2 24,7 23,3 7 4 16 8 NE 1011,4 20 38 0,0
03.08.2020 11:00:00 21,5 14,4 22,7 23,1 8 5 16 9 N 1011,8 20 50 0,0
03.08.2020 10:00:00 20,4 15,0 21,5 22,9 7 4 16 8 N 1012,2 20 42 0,0
03.08.2020 09:00:00 19,0 17,0 18,8 23,0 3 2 5 3 NNW 1012,6 20 32 0,0
03.08.2020 08:00:00 17,1 16,3 17,7 23,1 3 1 6 3 NNE 1012,8 20 25 0,0
03.08.2020 07:00:00 16,1 15,6 15,1 23,3 3 1 9 5 ESE 1013,1 20 25 0,0
03.08.2020 06:00:00 14,8 14,0 13,9 23,6 5 3 8 5 SSE 1013,1 20 0 0,0
03.08.2020 05:00:00 14,6 14,0 13,9 24,0 3 2 6 3 S 1012,7 20 0 0,0
03.08.2020 04:00:00 15,6 14,8 14,6 24,2 2 1 7 4 SW 1013,0 19 0 0,0
03.08.2020 03:00:00 17,2 16,4 16,5 24,5 5 3 8 5 SSW 1013,6 20 0 0,0
03.08.2020 02:00:00 17,4 16,4 16,5 24,7 3 2 10 5 SW 1014,1 20 0 0,0
03.08.2020 01:00:00 18,8 17,6 18,3 25,0 3 2 12 7 WSW 1014,3 20 0 0,0
03.08.2020 00:00:00 19,2 18,0 18,9 25,2 5 3 16 8 SSW 1014,2 20 0 0,0
02.08.2020 23:00:00 19,7 18,2 19,2 25,5 6 3 11 6 SW 1014,2 20 0 0,0
02.08.2020 22:00:00 20,3 18,4 20,0 25,7 6 4 11 6 SSW 1014,3 10 0 0,0
02.08.2020 21:00:00 20,7 18,3 20,6 25,8 7 4 11 6 SSW 1014,3 20 0 0,0
02.08.2020 20:00:00 21,6 17,8 21,8 25,9 7 4 11 6 SSW 1013,8 20 16 0,0
02.08.2020 19:00:00 21,8 17,8 22,7 25,8 4 2 9 5 SSW 1013,9 20 0 0,0
02.08.2020 18:00:00 21,9 18,3 24,0 25,7 6 3 9 5 SSE 1014,0 20 9 0,0
02.08.2020 17:00:00 22,1 18,7 22,3 25,6 6 3 14 7 SSE 1014,8 20 19 0,0
02.08.2020 16:00:00 20,8 18,9 19,9 25,7 6 4 10 6 SE 1015,1 20 0 0,2
02.08.2020 15:00:00 19,6 18,3 18,5 26,0 5 3 9 5 S 1015,6 20 0 0,8
02.08.2020 14:00:00 18,6 17,4 18,6 26,3 4 2 27 14 ESE 1015,5 7 0 15,2
02.08.2020 13:00:00 22,4 18,4 22,7 26,4 4 2 9 5 ESE 1015,0 20 0 0,0
02.08.2020 12:00:00 23,1 18,8 22,9 26,3 0 0 9 5 N 1015,3 20 0 0,0
02.08.2020 11:00:00 21,7 18,7 23,1 26,4 4 2 9 5 SE 1015,5 20 0 0,0
02.08.2020 10:00:00 21,4 18,4 22,1 26,5 3 2 8 4 E 1015,1 20 1 0,0
02.08.2020 09:00:00 20,4 18,9 20,0 26,6 4 2 7 4 N 1014,9 20 0 0,0
02.08.2020 08:00:00 19,4 18,6 19,0 26,9 5 3 8 4 NW 1014,8 20 0 0,0
02.08.2020 07:00:00 18,9 18,1 18,7 27,3 4 2 11 6 WSW 1014,5 20 0 0,0
02.08.2020 06:00:00 18,8 18,0 18,6 27,7 6 4 13 7 SE 1014,2 20 0 0,0
02.08.2020 05:00:00 18,9 17,7 18,8 28,1 6 3 18 10 ESE 1014,2 20 0 0,0
02.08.2020 04:00:00 19,4 17,7 18,5 28,6 6 3 17 9 SSE 1014,2 20 0 0,0
02.08.2020 03:00:00 19,6 17,4 18,5 29,1 13 7 19 10 SSW 1015,2 20 0 0,6
02.08.2020 02:00:00 19,0 17,5 18,7 29,7 9 5 14 8 SSW 1015,3 20 0 0,0
02.08.2020 01:00:00 19,0 17,5 18,6 30,3 4 2 8 4 S 1015,2 20 0 0,0
02.08.2020 00:00:00 19,6 17,4 18,8 30,9 4 2 16 8 NW 1015,6 20 0 0,0
01.08.2020 23:00:00 20,1 17,3 19,0 31,5 15 8 32 17 SW 1015,2 20 0 0,2
01.08.2020 22:00:00 20,7 17,5 17,4 32,0 25 13 77 41 NE 1014,8 18 0 6,1
01.08.2020 21:00:00 27,2 18,2 27,2 32,1 16 9 42 23 WNW 1012,6 20 0 0,0
01.08.2020 20:00:00 30,3 17,4 30,5 32,0 8 4 14 8 N 1011,6 20 3 0,0
01.08.2020 19:00:00 33,0 18,4 36,7 31,7 6 3 16 9 NNE 1011,4 20 60 0,0
01.08.2020 18:00:00 33,9 16,7 35,5 31,5 8 4 20 11 NNE 1011,9 20 46 0,0
01.08.2020 17:00:00 33,4 16,7 35,3 31,1 10 5 18 10 N 1012,4 20 33 0,0
01.08.2020 16:00:00 32,7 15,2 35,5 30,6 9 5 16 9 NE 1012,9 20 0 0,0
01.08.2020 15:00:00 32,9 15,4 36,1 29,9 6 3 17 9 E 1013,2 20 14 0,0
01.08.2020 14:00:00 33,9 15,4 40,7 29,1 9 5 28 15 E 1013,6 18 60 0,0
01.08.2020 13:00:00 33,1 16,0 37,9 28,5 10 5 18 10 ENE 1014,0 20 58 0,0
01.08.2020 12:00:00 32,0 17,1 35,3 28,0 10 5 21 12 WNW 1014,3 16 58 0,0
01.08.2020 11:00:00 30,6 17,0 29,2 27,9 7 4 17 9 SSW 1014,6 4,5 54 0,0
01.08.2020 10:00:00 26,5 17,0 26,5 27,9 8 4 16 9 S 1014,9 19 8 0,0
01.08.2020 09:00:00 25,0 16,2 23,8 28,1 8 4 13 7 SSW 1014,8 20 0 0,0
01.08.2020 08:00:00 22,5 16,1 21,6 28,4 4 2 10 6 E 1014,8 20 0 0,0
01.08.2020 07:00:00 22,3 15,6 19,1 28,7 4 2 16 9 SSW 1014,8 20 0 0,0
01.08.2020 06:00:00 19,9 15,3 18,6 29,1 5 3 10 5 W 1014,4 20 0 0,0
01.08.2020 05:00:00 23,2 14,5 21,0 29,4 5 3 15 8 S 1013,9 20 0 0,0
01.08.2020 04:00:00 21,9 14,8 21,1 29,8 8 5 13 7 SE 1014,1 20 0 0,0
01.08.2020 03:00:00 24,1 14,5 20,5 30,2 6 4 12 6 S 1014,0 20 0 0,0
01.08.2020 02:00:00 23,1 14,9 18,1 30,6 9 5 26 14 SSW 1014,5 20 0 0,0

tt = temperature
td = dewpoint
tt 5cm = temperature 5cm
tt -20cm = temperature -20cm
ff = wind speed
fx = gusts
dd = wind direction
ppp = reduced air pressure
vv = visibility
sd = sunshine duration
rr = precipitation

Next stations